AirNav   Air Wisconsin pilot careers
 
 426 users online  

K67 Oswego Municipal Airport
Oswego, Kansas, USA

GOING TO OSWEGO?


FAA INFORMATION EFFECTIVE 08 NOVEMBER 2018

Location

FAA Identifier: K67
Lat/Long: 37-09-33.8000N / 095-02-29.4000W
37-09.563333N / 095-02.490000W
37.1593889 / -95.0415000
(estimated)
Elevation: 832 ft. / 253.6 m (surveyed)
Variation: 05E (1985)
From city: 3 miles E of OSWEGO, KS
Time zone: UTC -6 (UTC -5 during Daylight Saving Time)
Zip code: 66725

Airport Operations

Airport use: Open to the public
Activation date: 08/1961
Control tower: no
ARTCC: KANSAS CITY CENTER
FSS: WICHITA FLIGHT SERVICE STATION
NOTAMs facility: ICT (NOTAM-D service available)
Attendance: UNATNDD
Wind indicator: yes
Segmented circle: no
Beacon: white-green (lighted land airport)
Operates sunset to sunrise.

Airport Communications

CTAF: 122.9

Nearby radio navigation aids

VOR radial/distance  VOR name  Freq  Var
OSWr081/7.8OSWEGO VOR/DME117.6008E
EOSr296/34.7NEOSHO VOR/DME117.3007E
CNUr132/38.4CHANUTE VOR/DME109.2005E

 
NDB name  Hdg/Dist  Freq  Var  ID
COFFEYVILLE076/25.721205ECFV -.-. ..-. ...-

Airport Services

Fuel available: 100LL
SELF SVC FUEL AVBL 24HRS
Parking: tiedowns
Airframe service: NONE
Powerplant service: NONE
Bottled oxygen: NONE
Bulk oxygen: NONE

Runway Information

Runway 17/35

Dimensions: 2500 x 50 ft. / 762 x 15 m
Surface: asphalt, in good condition
Runway edge lights: low intensity
RUNWAY 17  RUNWAY 35
Latitude: 37-09.768857N37-09.356787N
Longitude: 095-02.490013W095-02.490013W
Elevation: 832.0 ft.826.0 ft.
Traffic pattern: leftleft
Runway heading: 175 magnetic, 180 true355 magnetic, 000 true
Markings: basic, in good conditionbasic, in good condition
Obstructions: 23 ft. rr, 660 ft. from runway, 20:1 slope to clearnone

Airport Ownership and Management from official FAA records

Ownership: Publicly-owned
Owner: CITY OF OSWEGO
703 5TH ST
OSWEGO, KS 67356
Phone 620-795-4433
Manager: CALVIN JURGENSEN
PO BOX 210
OSWEGO, KS 67356
Phone (620) 429-0297

Airport Operational Statistics

Aircraft based on the field: 5
Single engine airplanes: 5
    
Aircraft operations: avg 46/month *
73% local general aviation
27% transient general aviation
* for 12-month period ending 02 August 2018

Additional Remarks

PUBLIC PHONE.
WILDLIFE ON & INVOF ARPT.

Instrument Procedures

There are no published instrument procedures at K67.

Some nearby airports with instrument procedures:

KMIO - Miami Regional Airport (17 nm SE)
KPTS - Atkinson Municipal Airport (23 nm NE)
KPPF - Tri-City Airport (24 nm NW)
KCFV - Coffeyville Municipal Airport (26 nm W)
KJLN - Joplin Regional Airport (26 nm E)
 
Loc | Ops | Rwys | IFR | FBO | Links
Com | Nav | Svcs | Stats | Notes

Kansas City Aviation Department
 
Area around K67 (Oswego Municipal Airport)
 
Road maps at: MapQuest Bing Google
 
Aerial photo
No photo
 
Sectional chart

 
Airport distance calculator
Flying to Oswego Municipal Airport? Find the distance to fly.

From to K67

Sunrise and sunset
Times for 18-Nov-2018
 Local
(UTC-6)
 Zulu
(UTC)
Morning civil twilight06:3512:35
Sunrise07:0313:03
Sunset17:0723:07
Evening civil twilight17:3523:35

Current date and time
Zulu (UTC)  18-Nov-2018 07:03:04
Local (UTC-6)  18-Nov-2018 01:03:04
 
METAR
KPTS 
23nm NE 
180655Z AUTO 02011G16KT 3SM BR OVC005 02/02 A3023 RMK AO2 T00210015
KPPF 
24nm NW 
180652Z AUTO 01011G20KT 1 1/2SM BR OVC006 01/00 A3027 RMK AO2 SLP251 T00060000
KCFV 
26nm W 
180652Z AUTO 36013KT 3SM BR OVC006 02/01 A3025 RMK AO2 SLP246 T00170011
KJLN 
26nm E 
180653Z AUTO 01009KT 4SM BR OVC006 03/02 A3022 RMK AO2 SLP233 T00330022
KIDP 
35nm W 
180630Z AUTO 01017G23KT 7SM OVC006 01/00 A3026 RMK AO2 T00061002
KGMJ 
37nm SE 
180655Z AUTO 01006KT 7SM OVC014 06/02 A3021 RMK AO2
KCNU 
37nm NW 
180652Z AUTO 36011KT 6SM BR OVC004 00/M01 A3027 RMK AO2 SLP254 T00001006
KEOS 
38nm SE 
SuperAWOS
180635Z AUTO 36008KT 7SM 04/04 A3017
KK88 
46nm N 
180655Z AUTO 35009KT 4SM OVC004 M01/M01 A3029 RMK AO1 T10101010
TAF
KJLN 
26nm E 
180523Z 1806/1906 02012KT 4SM -DZ BR OVC009 FM180800 02009KT 3SM -DZ BR OVC006 FM181500 01009KT P6SM OVC010 TEMPO 1815/1819 4SM SHRA OVC007 FM181900 01008KT P6SM -DZ OVC015
NOTAMs
Click for the latest NOTAMs
NOTAMs are issued by the DoD/FAA and will open in a separate window not controlled by AirNav.

 

 
 

FBO, Fuel Providers, and Aircraft Ground Support

  
 Business Name 
 
 Contact 
 
 Services / Description 
 
Fuel Prices
 
Comments
  
Oswego Municipal Airport 620-795-4433
620-795-2565
[web site]
[email]
Aviation fuel, Aircraft parking (ramp or tiedown), Hangar leasing / sales

More info about Oswego Municipal Airport
Ascent
100LL
SS $4.71 
 Updated 14-Nov-2018
 
   1 read write
SS=Self service
Update Fuel Prices
 

Would you like to see your business listed on this page?

 If your business provides an interesting product or service to pilots, flight crews, aircraft, or users of the Oswego Municipal Airport, you should consider listing it here.  To start the listing process, click on the button below
 
Add a business
 

Other Pages about Oswego Municipal Airport

Update a link
 
Copyright © AirNav, LLC. All rights reserved. Privacy Policy  Contact